,,,PA_Meas_PMT16A,,PR_Meas_QMR101_102,,RH_Meas_QMH101,,SR_Meas_QMS101,,TA_Meas_QMH101,,GenWind,,GenWind,
date,time,status,PA,status,PR,status,RH,status,SR,status,TA,status,DirAvg,status,SpdAvg,
2011-10-22, 00:00:04,VALID,1003.05,VALID,0,VALID,84.5814,VALID,0,VALID,26.7219,VALID,3,VALID,1.60117,
2011-10-22, 00:01:04,VALID,1003,VALID,0,VALID,84.5356,VALID,0,VALID,26.7609,VALID,344,VALID,1.50391,
2011-10-22, 00:02:04,VALID,1002.96,VALID,0,VALID,84.261,VALID,0,VALID,26.7998,VALID,19,VALID,1.54609,
2011-10-22, 00:03:04,VALID,1002.88,VALID,0,VALID,83.9635,VALID,0,VALID,26.8388,VALID,17,VALID,1.85312,
2011-10-22, 00:04:04,VALID,1002.84,VALID,0,VALID,83.9711,VALID,0,VALID,26.8778,VALID,343,VALID,0.99375,
2011-10-22, 00:05:04,VALID,1002.77,VALID,0,VALID,84.2839,VALID,0,VALID,26.8583,VALID,357,VALID,1.03203,
2011-10-22, 00:06:04,VALID,1002.73,VALID,0,VALID,84.6958,VALID,0,VALID,26.7998,VALID,6,VALID,0.923437,
2011-10-22, 00:07:04,VALID,1002.66,VALID,0,VALID,84.8408,VALID,0,VALID,26.7629,VALID,357,VALID,0.986719,
2011-10-22, 00:08:04,VALID,1002.6,VALID,0,VALID,85.0086,VALID,0,VALID,26.683,VALID,351,VALID,1.08594,
2011-10-22, 00:09:04,VALID,1002.58,VALID,0,VALID,85.3519,VALID,0,VALID,26.603,VALID,355,VALID,1.38633,
2011-10-22, 00:10:04,VALID,1002.59,VALID,0,VALID,85.2604,VALID,0,VALID,26.6245,VALID,5,VALID,1.69609,
2011-10-22, 00:11:04,VALID,1002.54,VALID,0,VALID,85.1002,VALID,0,VALID,26.6635,VALID,350,VALID,1.07187,
2011-10-22, 00:12:04,VALID,1002.5,VALID,0,VALID,85.8402,VALID,0,VALID,26.5855,VALID,8,VALID,0.939453,
2011-10-22, 00:13:04,VALID,1002.42,VALID,0,VALID,85.9088,VALID,0,VALID,26.5271,VALID,12,VALID,1.5293,
2011-10-22, 00:14:04,VALID,1002.4,VALID,0,VALID,86.5649,VALID,0,VALID,26.4297,VALID,11,VALID,0.888672,
2011-10-22, 00:15:04,VALID,1002.37,VALID,0,VALID,86.9921,VALID,0,VALID,26.3733,VALID,7,VALID,0.817187,
2011-10-22, 00:16:04,VALID,1002.34,VALID,0,VALID,87.2515,VALID,0,VALID,26.2933,VALID,357,VALID,0.823828,
2011-10-22, 00:17:04,VALID,1002.28,VALID,0,VALID,87.3354,VALID,0,VALID,26.2349,VALID,360,VALID,1.15352,
2011-10-22, 00:18:04,VALID,1002.31,VALID,0,VALID,87.5338,VALID,0,VALID,26.2544,VALID,2,VALID,1.69453,
2011-10-22, 00:19:04,VALID,1002.32,VALID,0,VALID,87.1676,VALID,0,VALID,26.2349,VALID,311,VALID,0.971094,
2011-10-22, 00:20:04,VALID,1002.38,VALID,0,VALID,87.1523,VALID,0,VALID,26.2933,VALID,354,VALID,2.13594,
2011-10-22, 00:21:04,VALID,1002.4,VALID,0,VALID,86.6488,VALID,0,VALID,26.3713,VALID,357,VALID,1.02852,
2011-10-22, 00:22:04,VALID,1002.42,VALID,0,VALID,86.6793,VALID,0,VALID,26.4687,VALID,10,VALID,0.552734,
2011-10-22, 00:23:04,VALID,1002.44,VALID,0,VALID,86.2826,VALID,0,VALID,26.4667,VALID,356,VALID,0.915625,
2011-10-22, 00:24:04,VALID,1002.47,VALID,0,VALID,86.1606,VALID,0,VALID,26.4687,VALID,360,VALID,1.41445,
2011-10-22, 00:25:04,VALID,1002.47,VALID,0,VALID,86.0385,VALID,0,VALID,26.4687,VALID,344,VALID,1.11094,
2011-10-22, 00:26:04,VALID,1002.44,VALID,0,VALID,86.1835,VALID,0,VALID,26.4277,VALID,339,VALID,0.75625,
2011-10-22, 00:27:04,VALID,1002.46,VALID,0,VALID,86.748,VALID,0,VALID,26.4512,VALID,356,VALID,1.08672,
2011-10-22, 00:28:04,VALID,1002.4,VALID,0,VALID,86.3818,VALID,0,VALID,26.3907,VALID,337,VALID,0.930859,
2011-10-22, 00:29:04,VALID,1002.43,VALID,0,VALID,86.809,VALID,0,VALID,26.3887,VALID,9,VALID,0.642578,
2011-10-22, 00:30:04,VALID,1002.42,VALID,0,VALID,87.282,VALID,0,VALID,26.3713,VALID,10,VALID,0.630859,
2011-10-22, 00:31:04,VALID,1002.41,VALID,0,VALID,86.8395,VALID,0,VALID,26.3498,VALID,348,VALID,1.27969,
2011-10-22, 00:32:04,VALID,1002.44,VALID,0,VALID,86.4581,VALID,0,VALID,26.4512,VALID,352,VALID,1.41445,
2011-10-22, 00:33:04,VALID,1002.42,VALID,0,VALID,86.7938,VALID,0,VALID,26.4492,VALID,359,VALID,1.04961,
2011-10-22, 00:34:04,VALID,1002.39,VALID,0,VALID,86.8319,VALID,0,VALID,26.4512,VALID,9,VALID,0.842969,
2011-10-22, 00:35:04,VALID,1002.37,VALID,0,VALID,86.4123,VALID,0,VALID,26.4492,VALID,348,VALID,1.27422,
2011-10-22, 00:36:04,VALID,1002.35,VALID,0,VALID,86.6107,VALID,0,VALID,26.4687,VALID,2,VALID,0.7875,
2011-10-22, 00:37:04,VALID,1002.32,VALID,0,VALID,86.8853,VALID,0,VALID,26.4492,VALID,8,VALID,0.741797,
2011-10-22, 00:38:04,VALID,1002.29,VALID,0,VALID,86.954,VALID,0,VALID,26.4512,VALID,8,VALID,0.469141,
2011-10-22, 00:39:04,VALID,1002.27,VALID,0,VALID,86.8929,VALID,0,VALID,26.4082,VALID,4,VALID,0.857031,
2011-10-22, 00:40:04,VALID,1002.23,VALID,0,VALID,86.5878,VALID,0,VALID,26.3907,VALID,9,VALID,0.651172,
2011-10-22, 00:41:04,VALID,1002.24,VALID,0,VALID,86.8395,VALID,0,VALID,26.3713,VALID,358,VALID,0.789844,
2011-10-22, 00:42:04,VALID,1002.22,VALID,0,VALID,86.7709,VALID,0,VALID,26.3713,VALID,348,VALID,1.25469,
2011-10-22, 00:43:04,VALID,1002.19,VALID,0,VALID,87.5795,VALID,0,VALID,26.3907,VALID,351,VALID,0.708203,
2011-10-22, 00:44:04,VALID,1002.2,VALID,0,VALID,87.4804,VALID,0,VALID,26.3713,VALID,351,VALID,0.526172,
2011-10-22, 00:45:04,VALID,1002.18,VALID,0,VALID,87.4346,VALID,0,VALID,26.3498,VALID,350,VALID,0.614844,
2011-10-22, 00:46:04,VALID,1002.26,VALID,0,VALID,87.5948,VALID,0,VALID,26.3518,VALID,3,VALID,1.30469,
2011-10-22, 00:47:04,VALID,1002.3,VALID,0,VALID,88.3195,VALID,0,VALID,26.3518,VALID,8,VALID,0.364453,
2011-10-22, 00:48:04,VALID,1002.38,VALID,0,VALID,87.9915,VALID,0,VALID,26.3128,VALID,8,VALID,0.392188,
2011-10-22, 00:49:04,VALID,1002.38,VALID,0,VALID,88.3653,VALID,0,VALID,26.2933,VALID,8,VALID,0.046875,
2011-10-22, 00:50:04,VALID,1002.43,VALID,0,VALID,88.907,VALID,0,VALID,26.2933,VALID,8,VALID,0.0273438,
2011-10-22, 00:51:04,VALID,1002.44,VALID,0,VALID,89.1892,VALID,0,VALID,26.2933,VALID,8,VALID,0.533203,
2011-10-22, 00:52:04,VALID,1002.48,VALID,0,VALID,89.1511,VALID,0,VALID,26.2329,VALID,210,VALID,0.849609,
2011-10-22, 00:53:04,VALID,1002.45,VALID,0,VALID,89.8682,VALID,0,VALID,26.2154,VALID,185,VALID,0.928516,
2011-10-22, 00:54:04,VALID,1002.46,VALID,0,VALID,89.8453,VALID,0,VALID,26.1765,VALID,188,VALID,0.725391,
2011-10-22, 00:55:04,VALID,1002.45,VALID,0,VALID,89.975,VALID,0,VALID,26.1375,VALID,185,VALID,0.712109,
2011-10-22, 00:56:04,VALID,1002.43,VALID,0,VALID,89.7156,VALID,0,VALID,26.0596,VALID,173,VALID,1.44687,
2011-10-22, 00:57:04,VALID,1002.42,VALID,0,VALID,90.2191,VALID,0,VALID,26.0012,VALID,188,VALID,0.928906,
2011-10-22, 00:58:04,VALID,1002.4,VALID,0,VALID,89.8453,VALID,0,VALID,25.9018,VALID,184,VALID,0.738281,
2011-10-22, 00:59:04,VALID,1002.39,VALID,0,VALID,90.1429,VALID,0,VALID,25.8843,VALID,212,VALID,0.853125,
2011-10-22, 01:00:04,VALID,1002.35,VALID,0,VALID,90.5243,VALID,0,VALID,25.8453,VALID,219,VALID,0.302344,
2011-10-22, 01:01:04,VALID,1002.33,VALID,0,VALID,91.0049,VALID,0,VALID,25.8453,VALID,219,VALID,0,
2011-10-22, 01:02:04,VALID,1002.32,VALID,0,VALID,91.394,VALID,0,VALID,25.8453,VALID,219,VALID,0.117188,
2011-10-22, 01:03:04,VALID,1002.39,VALID,0,VALID,91.4092,VALID,0,VALID,25.8239,VALID,219,VALID,0.115234,
2011-10-22, 01:04:04,VALID,1002.52,VALID,0,VALID,91.4932,VALID,0,VALID,25.8044,VALID,23,VALID,1.28008,
2011-10-22, 01:05:04,VALID,1002.68,VALID,0,VALID,91.9356,VALID,0,VALID,25.785,VALID,45,VALID,0.314063,
2011-10-22, 01:06:04,VALID,1002.75,VALID,0,VALID,91.9204,VALID,0,VALID,25.746,VALID,88,VALID,0.932813,
2011-10-22, 01:07:04,VALID,1002.78,VALID,1,VALID,92.3247,VALID,0,VALID,25.6292,VALID,64,VALID,1.49258,
2011-10-22, 01:08:04,VALID,1002.64,VALID,1,VALID,91.8288,VALID,0,VALID,25.3974,VALID,99,VALID,1.46133,
2011-10-22, 01:09:04,VALID,1002.46,VALID,1,VALID,93.0342,VALID,0,VALID,25.2416,VALID,347,VALID,1.03711,
2011-10-22, 01:10:04,VALID,1002.37,VALID,0,VALID,93.7818,VALID,0,VALID,25.1637,VALID,351,VALID,0.267969,
2011-10-22, 01:11:04,VALID,1002.38,VALID,0,VALID,92.4849,VALID,0,VALID,24.9087,VALID,13,VALID,1.45586,
2011-10-22, 01:12:04,VALID,1002.33,VALID,0,VALID,93.1639,VALID,0,VALID,24.7529,VALID,357,VALID,0.768359,
2011-10-22, 01:13:04,VALID,1002.35,VALID,0,VALID,93.4767,VALID,0,VALID,24.6574,VALID,11,VALID,1.33906,
2011-10-22, 01:14:04,VALID,1002.32,VALID,0,VALID,93.3699,VALID,0.0815089,VALID,24.5193,VALID,29,VALID,1.60859,
2011-10-22, 01:15:04,VALID,1002.3,VALID,0,VALID,93.614,VALID,0,VALID,24.4998,VALID,359,VALID,1.08594,
2011-10-22, 01:16:04,VALID,1002.29,VALID,0,VALID,93.7971,VALID,0,VALID,24.4609,VALID,16,VALID,0.719531,
2011-10-22, 01:17:04,VALID,1002.24,VALID,0,VALID,94.1633,VALID,0,VALID,24.4414,VALID,117,VALID,0.955469,
2011-10-22, 01:18:04,VALID,1002.19,VALID,0,VALID,94.6286,VALID,0,VALID,24.4609,VALID,141,VALID,1.03125,
2011-10-22, 01:19:04,VALID,1002.15,VALID,0,VALID,94.7888,VALID,0,VALID,24.4609,VALID,146,VALID,0.999219,
2011-10-22, 01:20:04,VALID,1002.11,VALID,0,VALID,94.9414,VALID,0,VALID,24.4804,VALID,163,VALID,0.591797,
2011-10-22, 01:21:04,VALID,1002.1,VALID,0,VALID,94.888,VALID,0,VALID,24.4822,VALID,149,VALID,0.630078,
2011-10-22, 01:22:04,VALID,1002.09,VALID,0,VALID,95.0482,VALID,0,VALID,24.4822,VALID,149,VALID,0.404297,
2011-10-22, 01:23:04,VALID,1002.12,VALID,0,VALID,95.1703,VALID,0,VALID,24.4804,VALID,149,VALID,0.290625,
2011-10-22, 01:24:04,VALID,1002.13,VALID,0,VALID,95.1398,VALID,0,VALID,24.4396,VALID,115,VALID,0.551562,
2011-10-22, 01:25:04,VALID,1002.11,VALID,0,VALID,95.2466,VALID,0,VALID,24.4201,VALID,107,VALID,0.293359,
2011-10-22, 01:26:04,VALID,1002.09,VALID,0,VALID,95.2618,VALID,0,VALID,24.4433,VALID,107,VALID,0.159375,
2011-10-22, 01:27:04,VALID,1002.1,VALID,0,VALID,95.3457,VALID,0,VALID,24.4238,VALID,107,VALID,0,
2011-10-22, 01:28:04,VALID,1002.08,VALID,0,VALID,95.4068,VALID,0,VALID,24.4025,VALID,107,VALID,0.00117188,
2011-10-22, 01:29:04,VALID,1002.11,VALID,0.5,VALID,95.4373,VALID,0,VALID,24.4025,VALID,107,VALID,0.123438,
2011-10-22, 01:30:04,VALID,1002.12,VALID,0,VALID,95.506,VALID,0,VALID,24.4025,VALID,107,VALID,0,
2011-10-22, 01:31:04,VALID,1002.11,VALID,0,VALID,95.5594,VALID,0,VALID,24.383,VALID,107,VALID,0,
2011-10-22, 01:32:04,VALID,1002.11,VALID,0,VALID,95.6051,VALID,0,VALID,24.4025,VALID,107,VALID,0,
2011-10-22, 01:33:04,VALID,1002.09,VALID,0,VALID,95.689,VALID,0,VALID,24.4025,VALID,107,VALID,0.194141,
2011-10-22, 01:34:04,VALID,1002.09,VALID,0,VALID,95.8187,VALID,0,VALID,24.4628,VALID,106,VALID,0.408203,
2011-10-22, 01:35:04,VALID,1002.06,VALID,0,VALID,95.8569,VALID,0,VALID,24.4609,VALID,344,VALID,0.291406,
2011-10-22, 01:36:04,VALID,1002.04,VALID,0,VALID,95.9255,VALID,0,VALID,24.5193,VALID,343,VALID,0.421484,
2011-10-22, 01:37:04,VALID,1002.03,VALID,0,VALID,95.8264,VALID,0,VALID,24.5193,VALID,309,VALID,0.758984,
2011-10-22, 01:38:04,VALID,1002.03,VALID,0,VALID,95.7501,VALID,0,VALID,24.5388,VALID,320,VALID,0.612891,
2011-10-22, 01:39:04,VALID,1002.04,VALID,0,VALID,95.7882,VALID,0,VALID,24.5582,VALID,328,VALID,0.624609,
2011-10-22, 01:40:04,VALID,1002.05,VALID,0,VALID,95.8035,VALID,0,VALID,24.5777,VALID,292,VALID,0.473047,
2011-10-22, 01:41:04,VALID,1002.03,VALID,0,VALID,95.773,VALID,0,VALID,24.5972,VALID,313,VALID,0.383984,
2011-10-22, 01:42:04,VALID,1002,VALID,0,VALID,95.6204,VALID,0,VALID,24.5777,VALID,353,VALID,0.846484,
2011-10-22, 01:43:04,VALID,1001.95,VALID,0,VALID,95.5441,VALID,0,VALID,24.5388,VALID,346,VALID,1.22344,
2011-10-22, 01:44:04,VALID,1001.87,VALID,0,VALID,95.4754,VALID,0,VALID,24.5017,VALID,349,VALID,0.916406,
2011-10-22, 01:45:04,VALID,1001.82,VALID,0,VALID,95.5899,VALID,0,VALID,24.4609,VALID,349,VALID,1.22031,
2011-10-22, 01:46:04,VALID,1001.8,VALID,0,VALID,95.6051,VALID,0,VALID,24.4201,VALID,348,VALID,1.27617,
2011-10-22, 01:47:04,VALID,1001.78,VALID,0,VALID,95.6662,VALID,0,VALID,24.4414,VALID,352,VALID,1.24805,
2011-10-22, 01:48:04,VALID,1001.78,VALID,0,VALID,95.6662,VALID,0,VALID,24.422,VALID,2,VALID,0.811719,
2011-10-22, 01:49:04,VALID,1001.8,VALID,0,VALID,95.6128,VALID,0,VALID,24.4025,VALID,343,VALID,1.06289,
2011-10-22, 01:50:04,VALID,1001.76,VALID,0,VALID,95.6814,VALID,0,VALID,24.383,VALID,334,VALID,0.686719,
2011-10-22, 01:51:04,VALID,1001.74,VALID,0,VALID,95.6204,VALID,0,VALID,24.383,VALID,340,VALID,0.905859,
2011-10-22, 01:52:04,VALID,1001.72,VALID,0,VALID,95.7424,VALID,0,VALID,24.4025,VALID,352,VALID,0.582422,
2011-10-22, 01:53:04,VALID,1001.77,VALID,0,VALID,95.8035,VALID,0,VALID,24.4628,VALID,353,VALID,0.15,
2011-10-22, 01:54:04,VALID,1001.77,VALID,0,VALID,95.7806,VALID,0,VALID,24.4414,VALID,352,VALID,0.427734,
2011-10-22, 01:55:04,VALID,1001.78,VALID,0,VALID,95.773,VALID,0,VALID,24.422,VALID,347,VALID,0.0910156,
2011-10-22, 01:56:04,VALID,1001.8,VALID,0,VALID,95.7653,VALID,0,VALID,24.4433,VALID,296,VALID,0.886719,
2011-10-22, 01:57:04,VALID,1001.85,VALID,0,VALID,95.8569,VALID,0,VALID,24.4609,VALID,241,VALID,0.258594,
2011-10-22, 01:58:04,VALID,1001.86,VALID,0,VALID,95.8721,VALID,0,VALID,24.4609,VALID,241,VALID,0.229687,
2011-10-22, 01:59:04,VALID,1001.96,VALID,0,VALID,95.895,VALID,0,VALID,24.4998,VALID,241,VALID,0.1375,
2011-10-22, 02:00:04,VALID,1002.02,VALID,0,VALID,95.8721,VALID,0,VALID,24.4998,VALID,215,VALID,0.483594,
2011-10-22, 02:01:04,VALID,1002.13,VALID,0,VALID,95.8493,VALID,0,VALID,24.4998,VALID,182,VALID,0.817578,
2011-10-22, 02:02:04,VALID,1002.22,VALID,0,VALID,95.895,VALID,0,VALID,24.5193,VALID,159,VALID,0.764844,
2011-10-22, 02:03:04,VALID,1002.25,VALID,0,VALID,95.9332,VALID,0,VALID,24.5388,VALID,154,VALID,1.06055,
2011-10-22, 02:04:04,VALID,1002.32,VALID,0,VALID,95.9561,VALID,0,VALID,24.5564,VALID,147,VALID,0.746094,
2011-10-22, 02:05:04,VALID,1002.39,VALID,0,VALID,95.9561,VALID,0,VALID,24.5777,VALID,127,VALID,1.15937,
2011-10-22, 02:06:04,VALID,1002.38,VALID,0,VALID,96.0095,VALID,0,VALID,24.5953,VALID,138,VALID,1.30898,
2011-10-22, 02:07:04,VALID,1002.36,VALID,0.5,VALID,96.0552,VALID,0,VALID,24.6556,VALID,155,VALID,1.0168,
2011-10-22, 02:08:04,VALID,1002.31,VALID,1,VALID,96.04,VALID,0,VALID,24.6556,VALID,146,VALID,1.30859,
2011-10-22, 02:09:04,VALID,1002.32,VALID,0,VALID,95.7959,VALID,0,VALID,24.5777,VALID,167,VALID,2.25352,
2011-10-22, 02:10:04,VALID,1002.29,VALID,0,VALID,95.5822,VALID,0,VALID,24.4609,VALID,183,VALID,1.08047,
2011-10-22, 02:11:04,VALID,1002.26,VALID,0.5,VALID,95.2161,VALID,0,VALID,24.3265,VALID,160,VALID,0.603125,
2011-10-22, 02:12:04,VALID,1002.24,VALID,0.5,VALID,94.4989,VALID,0,VALID,24.0716,VALID,193,VALID,2.33867,
2011-10-22, 02:13:04,VALID,1002.18,VALID,0.5,VALID,94.7278,VALID,0,VALID,23.9742,VALID,267,VALID,0.803516,
2011-10-22, 02:14:04,VALID,1002.1,VALID,1,VALID,94.3616,VALID,0.0815089,VALID,23.8185,VALID,174,VALID,1.54922,
2011-10-22, 02:15:04,VALID,1002.06,VALID,0.5,VALID,94.4761,VALID,0,VALID,23.6221,VALID,225,VALID,1.53789,
2011-10-22, 02:16:04,VALID,1002.07,VALID,0.5,VALID,94.7812,VALID,0,VALID,23.546,VALID,159,VALID,1.51602,
2011-10-22, 02:17:04,VALID,1002.11,VALID,0.5,VALID,95.2084,VALID,0,VALID,23.4682,VALID,197,VALID,0.460547,
2011-10-22, 02:18:04,VALID,1002.22,VALID,0,VALID,95.4068,VALID,0,VALID,23.4098,VALID,146,VALID,1.35312,
2011-10-22, 02:19:04,VALID,1002.23,VALID,0.5,VALID,95.5212,VALID,0,VALID,23.3337,VALID,190,VALID,1.79844,
2011-10-22, 02:20:04,VALID,1002.21,VALID,0,VALID,95.7272,VALID,0,VALID,23.3337,VALID,173,VALID,1.08281,
2011-10-22, 02:21:04,VALID,1002.19,VALID,0.5,VALID,95.9561,VALID,0,VALID,23.3337,VALID,246,VALID,0.650781,
2011-10-22, 02:22:04,VALID,1002.18,VALID,0,VALID,96.0476,VALID,0,VALID,23.3337,VALID,201,VALID,0.253906,
2011-10-22, 02:23:04,VALID,1002.11,VALID,0.5,VALID,96.2002,VALID,0,VALID,23.3727,VALID,290,VALID,0.865625,
2011-10-22, 02:24:04,VALID,1002.09,VALID,0.5,VALID,96.2231,VALID,0,VALID,23.3921,VALID,344,VALID,0.990234,
2011-10-22, 02:25:04,VALID,1002.08,VALID,0,VALID,96.2994,VALID,0,VALID,23.4116,VALID,344,VALID,0.917188,
2011-10-22, 02:26:04,VALID,1002.04,VALID,0,VALID,96.3528,VALID,0,VALID,23.4311,VALID,347,VALID,0.613672,
2011-10-22, 02:27:04,VALID,1002.04,VALID,0,VALID,96.3375,VALID,0,VALID,23.4718,VALID,250,VALID,0.291016,
2011-10-22, 02:28:05,VALID,1002.06,VALID,0,VALID,96.3756,VALID,0,VALID,23.4505,VALID,245,VALID,0.320313,
2011-10-22, 02:29:04,VALID,1002.08,VALID,0,VALID,96.3756,VALID,0,VALID,23.47,VALID,244,VALID,0.0707031,
2011-10-22, 02:30:05,VALID,1002.14,VALID,0.5,VALID,96.3833,VALID,0,VALID,23.47,VALID,244,VALID,0.18125,
2011-10-22, 02:31:05,VALID,1002.17,VALID,0,VALID,96.4214,VALID,0,VALID,23.4877,VALID,310,VALID,1.41094,
2011-10-22, 02:32:05,VALID,1002.19,VALID,0,VALID,96.4367,VALID,0,VALID,23.5284,VALID,345,VALID,0.226172,
2011-10-22, 02:33:05,VALID,1002.26,VALID,0,VALID,96.4443,VALID,0,VALID,23.5478,VALID,84,VALID,0.802344,
2011-10-22, 02:34:05,VALID,1002.35,VALID,0,VALID,96.4367,VALID,0,VALID,23.5673,VALID,106,VALID,0.944531,
2011-10-22, 02:35:05,VALID,1002.44,VALID,0,VALID,96.429,VALID,0,VALID,23.5673,VALID,104,VALID,0.997656,
2011-10-22, 02:36:05,VALID,1002.52,VALID,0,VALID,96.4443,VALID,0,VALID,23.5655,VALID,98,VALID,1.16875,
2011-10-22, 02:37:05,VALID,1002.59,VALID,0,VALID,96.4443,VALID,0,VALID,23.5655,VALID,85,VALID,1.44062,
2011-10-22, 02:38:05,VALID,1002.7,VALID,0,VALID,96.4748,VALID,0,VALID,23.585,VALID,99,VALID,0.982813,
2011-10-22, 02:39:05,VALID,1002.79,VALID,0,VALID,96.4748,VALID,0,VALID,23.585,VALID,92,VALID,1.50273,
2011-10-22, 02:40:05,VALID,1002.76,VALID,1,VALID,96.4367,VALID,0,VALID,23.608,VALID,96,VALID,1.23906,
2011-10-22, 02:41:05,VALID,1002.76,VALID,0.5,VALID,96.4367,VALID,0,VALID,23.5673,VALID,99,VALID,0.554297,
2011-10-22, 02:42:05,VALID,1002.79,VALID,0.5,VALID,96.4672,VALID,0,VALID,23.5868,VALID,102,VALID,0.362891,
2011-10-22, 02:43:05,VALID,1002.86,VALID,0.5,VALID,96.4672,VALID,0,VALID,23.6062,VALID,103,VALID,0.359766,
2011-10-22, 02:44:05,VALID,1002.85,VALID,0.5,VALID,96.4825,VALID,0,VALID,23.585,VALID,32,VALID,0.712891,
2011-10-22, 02:45:05,VALID,1002.85,VALID,0.5,VALID,96.4825,VALID,0,VALID,23.5655,VALID,327,VALID,0.492188,
2011-10-22, 02:46:05,VALID,1002.8,VALID,0,VALID,100.518,VALID,0,VALID,23.6257,VALID,288,VALID,0.796875,
2011-10-22, 02:47:05,VALID,1002.79,VALID,0.5,VALID,102.181,VALID,0,VALID,23.6239,VALID,285,VALID,0.0195313,
2011-10-22, 02:48:05,VALID,1002.84,VALID,0,VALID,102.334,VALID,0,VALID,23.6434,VALID,325,VALID,0.704297,
2011-10-22, 02:49:05,VALID,1002.84,VALID,0,VALID,102.418,VALID,0,VALID,23.7035,VALID,284,VALID,1.10664,
2011-10-22, 02:50:05,VALID,1002.84,VALID,0.5,VALID,102.463,VALID,0,VALID,23.7017,VALID,302,VALID,0.332031,
2011-10-22, 02:51:05,VALID,1002.84,VALID,0,VALID,102.425,VALID,0,VALID,23.7407,VALID,119,VALID,0.802734,
2011-10-22, 02:52:05,VALID,1002.86,VALID,0,VALID,102.395,VALID,0,VALID,23.8009,VALID,151,VALID,1.24805,
2011-10-22, 02:53:05,VALID,1002.94,VALID,0.5,VALID,102.395,VALID,0,VALID,23.8203,VALID,179,VALID,1.35664,
2011-10-22, 02:54:05,VALID,1003,VALID,0,VALID,102.387,VALID,0,VALID,23.8787,VALID,178,VALID,2.26836,
2011-10-22, 02:55:05,VALID,1002.98,VALID,1,VALID,102.296,VALID,0,VALID,23.8769,VALID,206,VALID,2.06094,
2011-10-22, 02:56:05,VALID,1003.02,VALID,0.5,VALID,102.372,VALID,0,VALID,23.9742,VALID,187,VALID,2.85586,
2011-10-22, 02:57:05,VALID,1003.12,VALID,0.5,VALID,102.319,VALID,0,VALID,24.0326,VALID,195,VALID,1.86094,
2011-10-22, 02:58:05,VALID,1003.31,VALID,0.5,VALID,102.235,VALID,0,VALID,24.0734,VALID,166,VALID,1.70117,
2011-10-22, 02:59:05,VALID,1003.38,VALID,1,VALID,102.174,VALID,0,VALID,23.9937,VALID,157,VALID,1.99141,
2011-10-22, 03:00:05,VALID,1003.49,VALID,0.5,VALID,102.204,VALID,0,VALID,23.9159,VALID,169,VALID,3.42383,
2011-10-22, 03:01:05,VALID,1003.48,VALID,1,VALID,102.113,VALID,0,VALID,23.9566,VALID,180,VALID,3.23398,
2011-10-22, 03:02:05,VALID,1003.53,VALID,1,VALID,102.09,VALID,0,VALID,23.9548,VALID,172,VALID,1.92305,
2011-10-22, 03:03:05,VALID,1003.54,VALID,0.5,VALID,102.105,VALID,0,VALID,23.9353,VALID,191,VALID,2.31289,
2011-10-22, 03:04:05,VALID,1003.6,VALID,0,VALID,102.097,VALID,0,VALID,23.9566,VALID,165,VALID,1.69609,
2011-10-22, 03:05:05,VALID,1003.65,VALID,0,VALID,101.754,VALID,0,VALID,23.8398,VALID,164,VALID,2.86016,
2011-10-22, 03:06:05,VALID,1003.7,VALID,0.5,VALID,96.3299,VALID,0,VALID,23.6646,VALID,174,VALID,1.97891,
2011-10-22, 03:07:05,VALID,1003.74,VALID,0.5,VALID,96.0476,VALID,0,VALID,23.3904,VALID,163,VALID,1.59805,
2011-10-22, 03:08:05,VALID,1003.66,VALID,0.5,VALID,95.3,VALID,0,VALID,23.0224,VALID,177,VALID,2.08047,
2011-10-22, 03:09:05,VALID,1003.49,VALID,1,VALID,95.3305,VALID,0,VALID,22.8083,VALID,212,VALID,2.73203,
2011-10-22, 03:10:05,VALID,1003.33,VALID,1,VALID,95.8416,VALID,0,VALID,22.7499,VALID,133,VALID,1.32383,
2011-10-22, 03:11:05,VALID,1003.27,VALID,0.5,VALID,96.0095,VALID,0,VALID,22.6721,VALID,168,VALID,0.871484,
2011-10-22, 03:12:05,VALID,1003.22,VALID,0.5,VALID,95.9713,VALID,0,VALID,22.5342,VALID,214,VALID,0.466406,
2011-10-22, 03:13:05,VALID,1003.14,VALID,0.5,VALID,96.1697,VALID,0,VALID,22.4953,VALID,230,VALID,0.843359,
2011-10-22, 03:14:05,VALID,1003.11,VALID,0,VALID,96.368,VALID,0,VALID,22.497,VALID,266,VALID,0.108984,
2011-10-22, 03:15:05,VALID,1003.12,VALID,0,VALID,96.513,VALID,0,VALID,22.497,VALID,229,VALID,0.409375,
2011-10-22, 03:16:05,VALID,1003.09,VALID,0,VALID,96.6121,VALID,0,VALID,22.5164,VALID,337,VALID,0.540625,
2011-10-22, 03:17:05,VALID,1003.1,VALID,0,VALID,96.6961,VALID,0,VALID,22.5536,VALID,336,VALID,0.921875,
2011-10-22, 03:18:05,VALID,1003.15,VALID,0,VALID,96.7418,VALID,0,VALID,22.5925,VALID,1,VALID,1.48594,
2011-10-22, 03:19:05,VALID,1003.21,VALID,0,VALID,96.7113,VALID,0,VALID,22.6137,VALID,12,VALID,1.38437,
2011-10-22, 03:20:05,VALID,1003.28,VALID,0,VALID,96.6884,VALID,0,VALID,22.5536,VALID,26,VALID,1.50742,
2011-10-22, 03:21:05,VALID,1003.3,VALID,0.5,VALID,96.6808,VALID,0,VALID,22.5748,VALID,32,VALID,1.23516,
2011-10-22, 03:22:05,VALID,1003.28,VALID,1,VALID,96.6961,VALID,0,VALID,22.5536,VALID,29,VALID,0.378906,
2011-10-22, 03:23:05,VALID,1003.22,VALID,0.5,VALID,96.7342,VALID,0,VALID,22.5731,VALID,29,VALID,0.0894531,
2011-10-22, 03:24:05,VALID,1003.14,VALID,1,VALID,96.7495,VALID,0,VALID,22.5731,VALID,29,VALID,0.00117188,
2011-10-22, 03:25:05,VALID,1003.06,VALID,0.5,VALID,96.8334,VALID,0,VALID,22.612,VALID,304,VALID,0.983594,
2011-10-22, 03:26:05,VALID,1002.98,VALID,1,VALID,96.8563,VALID,0,VALID,22.6704,VALID,316,VALID,0.494922,
2011-10-22, 03:27:05,VALID,1002.96,VALID,0,VALID,96.8563,VALID,0,VALID,22.7093,VALID,352,VALID,0.880859,
2011-10-22, 03:28:05,VALID,1002.91,VALID,0,VALID,96.8486,VALID,0,VALID,22.7093,VALID,350,VALID,1.19258,
2011-10-22, 03:29:05,VALID,1002.88,VALID,0.5,VALID,96.8258,VALID,0,VALID,22.7093,VALID,356,VALID,1.3082,
2011-10-22, 03:30:05,VALID,1002.8,VALID,0,VALID,96.7495,VALID,0,VALID,22.6704,VALID,347,VALID,1.25703,
2011-10-22, 03:31:05,VALID,1002.74,VALID,0,VALID,96.7495,VALID,0,VALID,22.6526,VALID,329,VALID,0.549609,
2011-10-22, 03:32:05,VALID,1002.74,VALID,0,VALID,96.78,VALID,0,VALID,22.6721,VALID,287,VALID,0.560156,
2011-10-22, 03:33:05,VALID,1002.79,VALID,0,VALID,96.8334,VALID,0,VALID,22.6509,VALID,292,VALID,0.278516,
2011-10-22, 03:34:05,VALID,1002.8,VALID,0.5,VALID,96.8563,VALID,0,VALID,22.6686,VALID,298,VALID,0.442578,
2011-10-22, 03:35:05,VALID,1002.86,VALID,0,VALID,96.8563,VALID,0,VALID,22.6881,VALID,341,VALID,0.941406,
2011-10-22, 03:36:05,VALID,1002.87,VALID,0,VALID,96.841,VALID,0,VALID,22.7093,VALID,351,VALID,0.951172,
2011-10-22, 03:37:05,VALID,1002.97,VALID,0,VALID,96.841,VALID,0,VALID,22.7287,VALID,351,VALID,1.14844,
2011-10-22, 03:38:05,VALID,1003.02,VALID,0,VALID,96.8639,VALID,0,VALID,22.7093,VALID,343,VALID,0.642578,
2011-10-22, 03:39:05,VALID,1003.08,VALID,0,VALID,96.8563,VALID,0,VALID,22.7287,VALID,2,VALID,0.666797,
2011-10-22, 03:40:05,VALID,1003.09,VALID,0,VALID,96.8334,VALID,0,VALID,22.7093,VALID,352,VALID,0.479688,
2011-10-22, 03:41:05,VALID,1003.06,VALID,0.5,VALID,96.8258,VALID,0,VALID,22.6915,VALID,346,VALID,1.35117,
2011-10-22, 03:42:05,VALID,1003,VALID,0,VALID,96.7952,VALID,0,VALID,22.6315,VALID,354,VALID,1.20977,
2011-10-22, 03:43:05,VALID,1002.96,VALID,0,VALID,96.78,VALID,0,VALID,22.5731,VALID,333,VALID,0.723437,
2011-10-22, 03:44:05,VALID,1002.98,VALID,0,VALID,96.78,VALID,0,VALID,22.5147,VALID,327,VALID,0.552344,
2011-10-22, 03:45:05,VALID,1003.07,VALID,0,VALID,96.7342,VALID,0,VALID,22.4563,VALID,359,VALID,1.28984,